Home   Weather   Santorini   Past weeks

Flag for Greece Past Weather in Santorini, Greece — Yesterday and Last 2 Weeks

Now
55 °F

Passing clouds.


Feels Like: 55 °F
Forecast: 58 / 60 °F
Wind: 5 mph from Northwest

Location: Santorini Island

Current Time: Dec 6, 2016 at 6:06:17 pm

Latest Report: Dec 6, 2016 at 5:20 pm


Visibility: N/A

Pressure: 30.30 "Hg

Humidity: 67%

Dew Point: 45 °F

Location of SantoriniLocation

Past Weather in Santorini — Graph

°F

Santorini Temperature Yesterday

Maximum temperature yesterday: 63 °F (at 10:50 am)
Minimum temperature yesterday: 55 °F (at 8:50 pm)
Average temperature yesterday: 59 °F

High & Low Weather Summary for the Past Weeks

 TemperatureHumidityPressure
High72 °F (Nov 28, 11:50 am)94% (Dec 4, 4:20 am)30.36 "Hg (Dec 4, 4:20 am)
Low48 °F (Dec 2, 7:50 am)36% (Dec 2, 11:50 am)29.74 "Hg (Nov 29, 12:50 pm)
Average60 °F69%30.08 "Hg
* Reported Nov 21 4:50 pm — Dec 6 4:50 pm, Santorini, Weather by CustomWeather, © 2016

Note: Actual official high and low records may vary slightly from our data, if they occured in-between our weather recording intervals... More about our weather records

Advertising

Santorini Weather History for the Previous 24 Hours

Scroll right to see more
 ConditionsComfort  
Time TempWeatherWind HumidityBarometerVisibility
4:50 pm
Tue, Dec 6
55 °FSunny.5 mph67%30.30 "Hg10 mi
4:20 pm57 °FPassing clouds.7 mph63%30.30 "HgN/A
3:50 pm57 °FPassing clouds.8 mph63%30.30 "HgN/A
3:20 pm59 °FPassing clouds.9 mph59%30.30 "HgN/A
2:50 pm59 °FPassing clouds.9 mph59%30.30 "HgN/A
2:20 pm59 °FPassing clouds.12 mph59%30.30 "HgN/A
1:50 pm59 °FPassing clouds.12 mph63%30.30 "HgN/A
1:20 pm59 °FPassing clouds.9 mph59%30.30 "HgN/A
12:50 pm59 °FPassing clouds.9 mph59%30.30 "HgN/A
12:20 pm59 °FPassing clouds.7 mph55%30.33 "HgN/A
11:50 am57 °FPassing clouds.8 mph55%30.33 "HgN/A
11:20 am59 °FPassing clouds.8 mph51%30.33 "HgN/A
10:50 am57 °FSunny.10 mph55%30.33 "Hg10 mi
10:20 am57 °FSunny.9 mph55%30.36 "Hg10 mi
9:50 am57 °FSunny.12 mph55%30.36 "Hg10 mi
9:20 am57 °FSunny.12 mph55%30.36 "Hg10 mi
8:50 am55 °FSunny.10 mph59%30.33 "Hg10 mi
8:20 am54 °FPassing clouds.8 mph63%30.33 "HgN/A
7:50 am50 °FPassing clouds.8 mph71%30.33 "HgN/A
7:20 am50 °FPassing clouds.6 mph67%30.33 "HgN/A
6:50 am52 °FPassing clouds.5 mph62%30.33 "HgN/A
6:20 am52 °FLight rain. Overcast.6 mph62%30.33 "HgN/A
5:50 am54 °FLight rain. Overcast.10 mph58%30.33 "HgN/A
5:20 am54 °FLight rain. Overcast.12 mph67%30.33 "HgN/A
4:50 am54 °FLight rain. Overcast.9 mph63%30.33 "HgN/A
4:20 am54 °FLight rain. Overcast.10 mph67%30.33 "HgN/A
3:50 am54 °FLight rain. Overcast.8 mph67%30.33 "HgN/A
3:20 am54 °FLight rain. Overcast.12 mph67%30.33 "HgN/A
2:50 am54 °FLight rain. Overcast.9 mph67%30.33 "HgN/A
2:20 am54 °FLight rain. Overcast.6 mph63%30.33 "HgN/A
1:50 am54 °FLight rain. Overcast.10 mph63%30.33 "HgN/A
1:20 am55 °FLight rain. Overcast.8 mph63%30.33 "HgN/A
12:50 am55 °FLight rain. Overcast.14 mph59%30.33 "HgN/A
12:20 am55 °FLight rain. Overcast.15 mph59%30.33 "HgN/A
11:50 pm
Mon, Dec 5
55 °FLight rain. Overcast.14 mph63%30.33 "HgN/A
11:20 pm55 °FLight rain. Overcast.12 mph63%30.33 "HgN/A
10:50 pm55 °FLight rain. Overcast.14 mph63%30.33 "HgN/A
10:20 pm55 °FLight rain. Overcast.13 mph63%30.33 "HgN/A
9:50 pm55 °FLight rain. Overcast.10 mph63%30.33 "HgN/A
9:20 pm55 °FPassing clouds.12 mph63%30.33 "HgN/A
8:50 pm55 °FPassing clouds.12 mph63%30.33 "HgN/A
8:20 pm57 °FPassing clouds.18 mph63%30.33 "HgN/A
7:50 pm57 °FPassing clouds.18 mph63%30.33 "HgN/A
7:20 pm57 °FPassing clouds.17 mph67%30.33 "HgN/A
6:50 pm57 °FPassing clouds.17 mph67%30.33 "HgN/A
6:20 pm57 °FPassing clouds.18 mph67%30.30 "HgN/A
Weather by CustomWeather, © 2016

See weather overviewHow to use our weather pages